Regional Weather Roundup
Issued by NWS

Home | Current Version | Previous Version | Graphics & Text | Print | Product List | Glossary Off
Versions: 1 2 3 4 5 6 7 8 9 10 11 12 13 14 15 16 17 18 19 20 21 22 23 24 25 26 27 28 29 30 31 32 33 34 35 36 37 38 39 40 41 42 43 44 45 46 47 48 49 50

069
ASUS43 KTOP 050008
RWRKS

WEATHER ROUNDUP FOR KANSAS
NATIONAL WEATHER SERVICE GOODLAND KS
600 PM CST SUN DEC 04 2016

NOTE:  "FAIR" INDICATES FEW OR NO CLOUDS BELOW 12,000 FEET WITH NO
SIGNIFICANT WEATHER AND/OR OBSTRUCTIONS TO VISIBILITY.

KSZ001>006-013>018-027>032-041>047-050100-
NORTHWEST KANSAS

CITY           SKY/WX    TMP DP  RH WIND       PRES   REMARKS
GOODLAND       CLEAR     42  11  28 S10       29.87F
6HR MIN TEMP:  41; 6HR MAX TEMP:  50;

HAYS           CLEAR     40  25  55 S8        29.95F
HILL CITY      CLEAR     42  19  39 S5        29.93S
6HR MIN TEMP:  42; 6HR MAX TEMP:  53;

RUSSELL        CLEAR     39  28  64 SW12      29.94F WCI  32
6HR MIN TEMP:  39; 6HR MAX TEMP:  50;

$$

KSZ061>065-074>080-084>089-050100-
SOUTHWEST KANSAS

CITY           SKY/WX    TMP DP  RH WIND       PRES   REMARKS
DODGE CITY     CLEAR     37  26  64 S7        29.99F
6HR MIN TEMP:  37; 6HR MAX TEMP:  51;

ELKHART          N/A     36  16  44 S8          N/A
GARDEN CITY    CLEAR     35  20  54 S7        29.95F
6HR MIN TEMP:  35; 6HR MAX TEMP:  51;

GREAT BEND     CLEAR     39  31  72 S7        29.98F
LIBERAL        CLEAR     39  21  48 S9        30.00F
PRATT          CLEAR     40  29  64 SW5       30.00S
6HR MIN TEMP:  40; 6HR MAX TEMP:  50;

$$

KSZ066>073-081>083-090>101-050100-
SOUTHEAST KANSAS

CITY           SKY/WX    TMP DP  RH WIND       PRES   REMARKS
CHANUTE        CLEAR     36  33  89 S3        30.02S
6HR MIN TEMP:  34; 6HR MAX TEMP:  50;

COFFEYVILLE    CLEAR     43  38  82 SE5       30.04R
6HR MIN TEMP:  43; 6HR MAX TEMP:  51;

HUTCHINSON     CLEAR     42  32  67 S3        30.00S
6HR MIN TEMP:  41; 6HR MAX TEMP:  52;

MEDICINE LODGE   N/A     50  22  33 S3        30.00S
PARSONS        CLEAR     38  36  92 CALM      30.04R
6HR MIN TEMP:  38; 6HR MAX TEMP:  50;

WICHITA INTL   CLEAR     42  34  73 S6        30.00F
6HR MIN TEMP:  41; 6HR MAX TEMP:  52;

WICHITA JABRA  CLEAR     43  35  73 S6        30.00F
6HR MIN TEMP:  39; 6HR MAX TEMP:  50;

WICHITA MCCONL CLEAR     43  37  79 S5        30.01S
WINFIELD       CLEAR     42  38  85 S3        30.04R
6HR MIN TEMP:  41; 6HR MAX TEMP:  48;

$$

KSZ007>012-019>026-033>040-048>060-102>105-050100-
NORTHEAST KANSAS

CITY           SKY/WX    TMP DP  RH WIND       PRES   REMARKS
CONCORDIA      CLEAR     36  31  82 S9        29.95S
6HR MIN TEMP:  36; 6HR MAX TEMP:  47;

EMPORIA        CLEAR     40  34  79 S3        30.00S
6HR MIN TEMP:  38; 6HR MAX TEMP:  45;

LAWRENCE       CLEAR     35  34  96 W3        30.02R
6HR MIN TEMP:  35; 6HR MAX TEMP:  42;

MANHATTAN      CLEAR     36  34  92 CALM      29.99S
6HR MIN TEMP:  35; 6HR MAX TEMP:  46;

MARYSVILLE     CLEAR     37  34  87 S6        29.96R
OLATHE IND     CLEAR     37  35  92 SW3       30.02R
6HR MIN TEMP:  37; 6HR MAX TEMP:  44;

OLATHE EXE     PTCLDY    38  34  85 W5        30.01R
6HR MIN TEMP:  38; 6HR MAX TEMP:  44;

SALINA         CLEAR     40  33  76 S5        29.98S
6HR MIN TEMP:  39; 6HR MAX TEMP:  52;

TOPEKA BILLARD CLEAR     36  33  89 S3        30.01S
6HR MIN TEMP:  36; 6HR MAX TEMP:  40;

TOPEKA FORBES  CLEAR     34  32  92 S3        30.00S
6HR MIN TEMP:  34; 6HR MAX TEMP:  42;

$$




USA.gov is the U.S. government's official web portal to all federal, state and local government web resources and services.